QPF
0.06 0.07 0.07 0.06 0.04 0.02 0.03 0.05 0.04 0.04 0.05 0.06 0.04 0.05 0.05 0.03 0.02 0.03 0.04 0.02 0.01 0.01 0.01 0.02 0.01 0.02 0.03 0.02 0.03 0.02 0.02 0.02 0.02 0.02 0.02 0.02 0.02 0.02 0.02 0.01 0.02 0.02 0.01
0.04 0.05 0.05 0.05 0.04 0.02 0.03 0.04 0.03 0.04 0.04 0.05 0.05 0.03 0.05 0.05 0.03 0.03 0.04 0.04 0.02 0.01 0.02 0.02 0.02 0.04 0.05 0.04 0.04 0.03 0.03 0.02 0.02 0.02 0.02 0.01 0.02 0.02 0.02 0.02 0.02 0.01 0.01
0.04 0.04 0.04 0.04 0.03 0.02 0.03 0.04 0.03 0.04 0.04 0.05 0.06 0.04 0.05 0.06 0.03 0.04 0.05 0.06 0.05 0.03 0.02 0.02 0.03 0.03 0.04 0.03 0.04 0.03 0.02 0.01 0.01 0.01 0.01 0.01 0.02 0.01 0.02 0.02 0.02 0.01 0.01
0.04 0.04 0.03 0.05 0.05 0.04 0.04 0.04 0.04 0.04 0.05 0.04 0.06 0.06 0.06 0.07 0.04 0.03 0.06 0.09 0.09 0.06 0.03 0.02 0.03 0.02 0.02 0.03 0.03 0.03 0.02 0.01 0.01 0.01 0.01 0.02 0.02 0.02 0.01 0.01 0.01 0.01 0.01
0.03 0.05 0.06 0.06 0.09 0.09 0.06 0.05 0.07 0.05 0.05 0.05 0.03 0.05 0.04 0.05 0.06 0.07 0.08 0.07 0.10 0.09 0.05 0.03 0.02 0.01 0.01 0.02 0.03 0.03 0.03 0.03 0.01 0.01 0.01 0.02 0.02 0.02 0.02 0.01 0.01 0.01 0.01
0.04 0.06 0.07 0.05 0.06 0.11 0.12 0.08 0.07 0.06 0.06 0.06 0.04 0.05 0.04 0.05 0.05 0.06 0.05 0.06 0.09 0.06 0.06 0.05 0.05 0.02 0.01 0.02 0.02 0.02 0.03 0.03 0.02 0.01 0.02 0.02 0.02 0.02 0.02 0.01 0.01 0.01 0.01
0.06 0.08 0.09 0.09 0.08 0.10 0.11 0.09 0.09 0.09 0.08 0.05 0.07 0.08 0.06 0.04 0.04 0.05 0.04 0.05 0.04 0.03 0.05 0.06 0.07 0.06 0.03 0.02 0.02 0.01 0.02 0.02 0.02 0.01 0.02 0.02 0.02 0.02 0.02 0.01 0.01 0.01 0.01
0.05 0.05 0.09 0.08 0.08 0.11 0.10 0.10 0.10 0.10 0.08 0.06 0.09 0.13 0.14 0.12 0.09 0.05 0.05 0.04 0.03 0.03 0.03 0.03 0.06 0.07 0.06 0.06 0.03 0.02 0.02 0.02 0.02 0.02 0.02 0.03 0.03 0.02 0.02 0.02 0.01 0.01 0.01
0.04 0.07 0.08 0.07 0.10 0.08 0.11 0.13 0.08 0.09 0.11 0.08 0.08 0.11 0.16 0.16 0.13 0.08 0.04 0.03 0.03 0.04 0.03 0.02 0.02 0.05 0.06 0.07 0.07 0.03 0.01 0.02 0.03 0.02 0.03 0.02 0.02 0.02 0.01 0.01 0.02 0.01 0.01
0.05 0.06 0.07 0.08 0.08 0.07 0.10 0.09 0.09 0.12 0.12 0.10 0.10 0.08 0.09 0.11 0.13 0.14 0.10 0.06 0.04 0.03 0.03 0.02 0.02 0.03 0.04 0.07 0.07 0.03 0.01 0.01 0.02 0.03 0.03 0.03 0.02 0.01 0.01 0.01 0.01 0.02 0.02
0.08 0.06 0.08 0.09 0.08 0.07 0.06 0.08 0.11 0.10 0.10 0.10 0.09 0.09 0.10 0.10 0.09 0.10 0.11 0.10 0.07 0.06 0.05 0.03 0.04 0.04 0.04 0.06 0.06 0.03 0.01 0.01 0.01 0.02 0.02 0.02 0.02 0.02 0.02 0.02 0.02 0.02 0.03
0.08 0.07 0.06 0.08 0.09 0.09 0.09 0.08 0.07 0.08 0.10 0.10 0.10 0.09 0.09 0.08 0.07 0.06 0.07 0.06 0.07 0.06 0.05 0.03 0.03 0.03 0.03 0.04 0.04 0.02 0.01 0.01 0.01 0.01 0.01 0.01 0.02 0.02 0.02 0.02 0.01 0.02 0.03
0.05 0.06 0.07 0.09 0.11 0.12 0.11 0.10 0.08 0.08 0.08 0.07 0.07 0.08 0.06 0.04 0.04 0.05 0.06 0.05 0.05 0.04 0.03 0.03 0.02 0.02 0.02 0.02 0.04 0.02 0.01 0.02 0.01 0.01 0.00 0.01 0.01 0.01 0.01 0.01 0.01 0.01 0.02
0.06 0.08 0.09 0.09 0.09 0.10 0.10 0.12 0.09 0.09 0.09 0.06 0.05 0.08 0.07 0.05 0.04 0.05 0.06 0.07 0.06 0.05 0.05 0.04 0.02 0.02 0.02 0.03 0.02 0.02 0.02 0.01 0.01 0.01 0.01 0.00 0.00 0.01 0.01 0.01 0.01 0.01 0.01
0.08 0.09 0.08 0.06 0.08 0.08 0.09 0.10 0.08 0.08 0.11 0.08 0.08 0.09 0.07 0.06 0.05 0.04 0.05 0.06 0.07 0.09 0.08 0.06 0.04 0.02 0.02 0.05 0.03 0.02 0.02 0.01 0.01 0.01 0.01 0.01 0.00 0.01 0.01 0.01 0.01 0.00 0.00
0.08 0.08 0.06 0.04 0.06 0.07 0.08 0.09 0.08 0.09 0.10 0.08 0.09 0.12 0.11 0.09 0.08 0.06 0.06 0.06 0.07 0.07 0.06 0.04 0.04 0.04 0.04 0.04 0.04 0.03 0.02 0.02 0.01 0.01 0.01 0.01 0.01 0.01 0.01 0.01 0.01 0.01 0.01
0.09 0.09 0.08 0.07 0.08 0.08 0.10 0.11 0.09 0.11 0.12 0.11 0.10 0.11 0.10 0.11 0.11 0.08 0.06 0.06 0.07 0.09 0.08 0.06 0.07 0.07 0.07 0.06 0.05 0.05 0.03 0.03 0.02 0.01 0.01 0.01 0.01 0.01 0.01 0.01 0.01 0.01 0.01
0.08 0.09 0.09 0.07 0.07 0.10 0.12 0.10 0.10 0.12 0.14 0.13 0.12 0.14 0.10 0.11 0.11 0.09 0.08 0.07 0.09 0.11 0.10 0.10 0.09 0.07 0.09 0.09 0.08 0.07 0.05 0.04 0.03 0.02 0.02 0.01 0.01 0.01 0.01 0.01 0.01 0.01 0.01
0.07 0.08 0.08 0.08 0.09 0.11 0.13 0.12 0.11 0.11 0.11 0.11 0.12 0.13 0.11 0.12 0.12 0.13 0.11 0.11 0.12 0.11 0.10 0.08 0.07 0.09 0.09 0.10 0.12 0.09 0.07 0.05 0.02 0.03 0.04 0.02 0.01 0.01 0.01 0.01 0.01 0.01 0.01
0.07 0.09 0.11 0.10 0.09 0.09 0.11 0.13 0.13 0.13 0.14 0.14 0.13 0.13 0.13 0.14 0.14 0.16 0.15 0.16 0.14 0.12 0.11 0.09 0.08 0.09 0.09 0.10 0.11 0.10 0.11 0.08 0.05 0.03 0.04 0.04 0.03 0.02 0.01 0.01 0.01 0.01 0.01
0.06 0.08 0.10 0.10 0.09 0.08 0.08 0.09 0.09 0.09 0.11 0.11 0.10 0.08 0.06 0.07 0.09 0.12 0.10 0.13 0.12 0.10 0.08 0.08 0.08 0.09 0.10 0.13 0.13 0.13 0.13 0.11 0.09 0.06 0.07 0.06 0.06 0.06 0.04 0.03 0.02 0.02 0.02
0.07 0.08 0.09 0.09 0.09 0.05 0.06 0.07 0.08 0.08 0.10 0.09 0.09 0.10 0.09 0.08 0.08 0.09 0.09 0.09 0.11 0.11 0.09 0.09 0.09 0.09 0.11 0.13 0.14 0.14 0.15 0.13 0.10 0.07 0.07 0.07 0.07 0.09 0.07 0.06 0.06 0.04 0.03
0.08 0.07 0.07 0.08 0.08 0.07 0.07 0.05 0.05 0.07 0.09 0.10 0.11 0.12 0.10 0.09 0.09 0.09 0.09 0.09 0.09 0.09 0.08 0.08 0.08 0.08 0.09 0.11 0.14 0.13 0.13 0.12 0.09 0.07 0.09 0.09 0.08 0.09 0.08 0.07 0.08 0.06 0.05
0.08 0.07 0.08 0.08 0.09 0.08 0.09 0.06 0.04 0.06 0.08 0.08 0.08 0.09 0.10 0.10 0.10 0.10 0.08 0.08 0.07 0.07 0.07 0.08 0.07 0.07 0.09 0.10 0.11 0.11 0.12 0.11 0.10 0.09 0.11 0.10 0.08 0.08 0.09 0.10 0.11 0.09 0.07
0.08 0.07 0.08 0.09 0.10 0.08 0.09 0.06 0.05 0.06 0.06 0.06 0.08 0.11 0.13 0.16 0.17 0.15 0.12 0.10 0.08 0.09 0.10 0.10 0.08 0.06 0.05 0.05 0.05 0.07 0.09 0.10 0.10 0.10 0.12 0.14 0.12 0.11 0.08 0.07 0.08 0.07 0.07
0.09 0.09 0.09 0.09 0.08 0.05 0.05 0.04 0.05 0.05 0.06 0.08 0.11 0.14 0.17 0.19 0.20 0.20 0.19 0.16 0.14 0.13 0.12 0.11 0.10 0.08 0.07 0.06 0.06 0.05 0.06 0.09 0.11 0.11 0.10 0.13 0.16 0.16 0.13 0.09 0.08 0.08 0.08
MSLP
1014.81 1015.01 1015.10 1015.13 1015.12 1015.11 1015.12 1015.16 1015.21 1015.27 1015.30 1015.31 1015.30 1015.29 1015.32 1015.42 1015.61 1015.90 1016.27 1016.70 1017.14 1017.56 1017.93 1018.23 1018.47 1018.66 1018.83 1019.00 1019.18 1019.38 1019.59 1019.81 1020.03 1020.24 1020.45 1020.65 1020.85 1021.06 1021.27 1021.49 1021.70 1021.88 1022.04
1014.63 1014.81 1014.90 1014.93 1014.92 1014.90 1014.91 1014.95 1015.02 1015.10 1015.17 1015.22 1015.25 1015.27 1015.31 1015.40 1015.55 1015.78 1016.08 1016.44 1016.82 1017.21 1017.58 1017.90 1018.19 1018.44 1018.66 1018.87 1019.07 1019.27 1019.48 1019.68 1019.88 1020.08 1020.29 1020.51 1020.75 1020.99 1021.24 1021.48 1021.70 1021.90 1022.06
1014.41 1014.58 1014.68 1014.72 1014.73 1014.74 1014.77 1014.84 1014.94 1015.05 1015.15 1015.24 1015.29 1015.33 1015.36 1015.41 1015.49 1015.64 1015.84 1016.11 1016.42 1016.75 1017.10 1017.45 1017.78 1018.09 1018.37 1018.64 1018.87 1019.09 1019.30 1019.49 1019.68 1019.87 1020.08 1020.31 1020.56 1020.83 1021.10 1021.37 1021.61 1021.82 1021.99
1014.16 1014.33 1014.44 1014.51 1014.56 1014.62 1014.70 1014.81 1014.94 1015.09 1015.23 1015.35 1015.42 1015.46 1015.47 1015.46 1015.47 1015.51 1015.60 1015.75 1015.96 1016.23 1016.54 1016.89 1017.25 1017.61 1017.96 1018.28 1018.56 1018.81 1019.02 1019.21 1019.39 1019.58 1019.78 1020.01 1020.27 1020.55 1020.84 1021.12 1021.37 1021.60 1021.78
1013.89 1014.06 1014.19 1014.29 1014.39 1014.50 1014.63 1014.80 1014.98 1015.18 1015.36 1015.50 1015.60 1015.63 1015.62 1015.56 1015.48 1015.41 1015.38 1015.40 1015.50 1015.68 1015.94 1016.27 1016.64 1017.03 1017.42 1017.79 1018.11 1018.39 1018.62 1018.82 1019.00 1019.18 1019.38 1019.61 1019.87 1020.14 1020.43 1020.72 1020.98 1021.22 1021.42
1013.60 1013.75 1013.89 1014.03 1014.17 1014.34 1014.53 1014.74 1014.98 1015.22 1015.45 1015.64 1015.76 1015.81 1015.79 1015.69 1015.55 1015.38 1015.24 1015.15 1015.13 1015.21 1015.39 1015.66 1016.01 1016.40 1016.81 1017.20 1017.55 1017.85 1018.10 1018.31 1018.50 1018.69 1018.89 1019.11 1019.36 1019.64 1019.92 1020.20 1020.46 1020.70 1020.93
1013.29 1013.40 1013.54 1013.69 1013.87 1014.07 1014.31 1014.57 1014.86 1015.16 1015.44 1015.68 1015.86 1015.95 1015.95 1015.85 1015.68 1015.45 1015.23 1015.03 1014.90 1014.87 1014.95 1015.14 1015.43 1015.79 1016.17 1016.56 1016.91 1017.23 1017.49 1017.72 1017.92 1018.12 1018.33 1018.56 1018.81 1019.08 1019.35 1019.62 1019.87 1020.11 1020.34
1012.97 1013.03 1013.13 1013.27 1013.46 1013.68 1013.94 1014.24 1014.58 1014.93 1015.28 1015.60 1015.85 1016.02 1016.08 1016.03 1015.87 1015.63 1015.35 1015.08 1014.86 1014.72 1014.70 1014.79 1014.98 1015.26 1015.59 1015.93 1016.26 1016.56 1016.83 1017.07 1017.30 1017.52 1017.75 1017.99 1018.25 1018.52 1018.78 1019.04 1019.28 1019.51 1019.73
1012.67 1012.65 1012.70 1012.79 1012.95 1013.16 1013.42 1013.74 1014.11 1014.52 1014.94 1015.35 1015.71 1015.99 1016.15 1016.18 1016.09 1015.89 1015.61 1015.30 1015.02 1014.79 1014.65 1014.62 1014.70 1014.87 1015.10 1015.37 1015.64 1015.91 1016.16 1016.41 1016.65 1016.90 1017.16 1017.43 1017.72 1018.00 1018.26 1018.51 1018.74 1018.95 1019.16
1012.43 1012.32 1012.28 1012.31 1012.41 1012.57 1012.82 1013.13 1013.52 1013.97 1014.46 1014.97 1015.44 1015.84 1016.13 1016.29 1016.31 1016.18 1015.94 1015.64 1015.32 1015.03 1014.80 1014.65 1014.60 1014.64 1014.75 1014.91 1015.09 1015.30 1015.51 1015.74 1016.00 1016.27 1016.57 1016.88 1017.21 1017.52 1017.80 1018.06 1018.27 1018.47 1018.66
1012.32 1012.11 1011.98 1011.92 1011.94 1012.04 1012.23 1012.51 1012.90 1013.37 1013.92 1014.50 1015.08 1015.61 1016.03 1016.32 1016.46 1016.44 1016.28 1016.02 1015.70 1015.37 1015.07 1014.83 1014.66 1014.56 1014.53 1014.56 1014.63 1014.74 1014.90 1015.09 1015.34 1015.63 1015.96 1016.32 1016.69 1017.04 1017.36 1017.63 1017.86 1018.05 1018.21
1012.38 1012.10 1011.88 1011.72 1011.65 1011.67 1011.79 1012.03 1012.38 1012.85 1013.42 1014.05 1014.70 1015.32 1015.86 1016.27 1016.53 1016.62 1016.55 1016.36 1016.07 1015.74 1015.40 1015.08 1014.80 1014.58 1014.42 1014.31 1014.25 1014.25 1014.32 1014.45 1014.67 1014.95 1015.30 1015.70 1016.11 1016.51 1016.87 1017.18 1017.43 1017.62 1017.78
1012.69 1012.35 1012.05 1011.82 1011.66 1011.60 1011.64 1011.81 1012.11 1012.54 1013.08 1013.71 1014.39 1015.05 1015.65 1016.15 1016.50 1016.68 1016.71 1016.59 1016.36 1016.05 1015.70 1015.34 1015.00 1014.67 1014.39 1014.14 1013.95 1013.83 1013.78 1013.83 1013.98 1014.24 1014.58 1014.99 1015.43 1015.88 1016.29 1016.64 1016.92 1017.14 1017.30
1013.28 1012.91 1012.57 1012.28 1012.06 1011.92 1011.88 1011.97 1012.18 1012.54 1013.02 1013.60 1014.23 1014.88 1015.49 1016.01 1016.40 1016.65 1016.75 1016.70 1016.53 1016.27 1015.94 1015.58 1015.19 1014.80 1014.41 1014.06 1013.74 1013.48 1013.32 1013.25 1013.32 1013.50 1013.81 1014.20 1014.65 1015.12 1015.57 1015.96 1016.28 1016.53 1016.71
1014.15 1013.79 1013.44 1013.13 1012.86 1012.66 1012.55 1012.56 1012.68 1012.93 1013.31 1013.79 1014.33 1014.90 1015.44 1015.93 1016.32 1016.58 1016.71 1016.71 1016.61 1016.40 1016.11 1015.77 1015.37 1014.95 1014.50 1014.05 1013.63 1013.25 1012.96 1012.77 1012.72 1012.81 1013.04 1013.39 1013.81 1014.28 1014.74 1015.16 1015.51 1015.79 1016.00
1015.26 1014.94 1014.62 1014.30 1014.02 1013.79 1013.63 1013.56 1013.59 1013.73 1013.98 1014.32 1014.73 1015.16 1015.60 1015.99 1016.32 1016.55 1016.68 1016.71 1016.64 1016.48 1016.25 1015.94 1015.56 1015.13 1014.66 1014.15 1013.64 1013.17 1012.76 1012.45 1012.28 1012.25 1012.38 1012.64 1013.00 1013.42 1013.86 1014.28 1014.64 1014.94 1015.18
1016.54 1016.28 1016.00 1015.72 1015.45 1015.22 1015.03 1014.90 1014.85 1014.88 1015.00 1015.20 1015.45 1015.73 1016.01 1016.28 1016.50 1016.66 1016.75 1016.76 1016.71 1016.59 1016.39 1016.13 1015.79 1015.38 1014.91 1014.38 1013.83 1013.28 1012.78 1012.37 1012.07 1011.93 1011.93 1012.07 1012.33 1012.67 1013.05 1013.43 1013.77 1014.06 1014.30
1017.86 1017.67 1017.45 1017.22 1016.99 1016.77 1016.58 1016.42 1016.31 1016.26 1016.27 1016.33 1016.43 1016.55 1016.68 1016.80 1016.90 1016.96 1016.98 1016.96 1016.89 1016.78 1016.61 1016.38 1016.09 1015.71 1015.27 1014.75 1014.19 1013.61 1013.05 1012.56 1012.16 1011.90 1011.77 1011.79 1011.92 1012.14 1012.42 1012.71 1012.99 1013.24 1013.45
1019.12 1019.00 1018.84 1018.67 1018.48 1018.30 1018.12 1017.96 1017.82 1017.72 1017.64 1017.60 1017.58 1017.58 1017.57 1017.56 1017.53 1017.48 1017.41 1017.32 1017.22 1017.09 1016.93 1016.72 1016.46 1016.13 1015.72 1015.24 1014.70 1014.13 1013.55 1013.01 1012.55 1012.18 1011.94 1011.82 1011.81 1011.90 1012.04 1012.22 1012.40 1012.56 1012.71
1020.24 1020.17 1020.07 1019.94 1019.80 1019.66 1019.51 1019.37 1019.23 1019.11 1019.00 1018.90 1018.80 1018.70 1018.59 1018.47 1018.33 1018.18 1018.02 1017.86 1017.69 1017.52 1017.34 1017.14 1016.90 1016.60 1016.24 1015.81 1015.32 1014.78 1014.23 1013.68 1013.18 1012.74 1012.40 1012.16 1012.01 1011.94 1011.94 1011.97 1012.02 1012.08 1012.13
1021.18 1021.14 1021.07 1020.98 1020.89 1020.78 1020.67 1020.55 1020.44 1020.33 1020.21 1020.09 1019.96 1019.81 1019.63 1019.44 1019.22 1018.99 1018.74 1018.50 1018.27 1018.04 1017.82 1017.60 1017.36 1017.09 1016.77 1016.40 1015.97 1015.49 1014.98 1014.45 1013.94 1013.47 1013.06 1012.71 1012.44 1012.23 1012.07 1011.95 1011.86 1011.78 1011.72
1021.95 1021.92 1021.87 1021.80 1021.73 1021.65 1021.57 1021.49 1021.41 1021.32 1021.22 1021.11 1020.98 1020.81 1020.61 1020.38 1020.11 1019.81 1019.50 1019.19 1018.88 1018.59 1018.32 1018.06 1017.81 1017.55 1017.26 1016.94 1016.57 1016.15 1015.70 1015.22 1014.73 1014.25 1013.79 1013.37 1012.99 1012.66 1012.36 1012.10 1011.87 1011.66 1011.47
1022.59 1022.56 1022.51 1022.46 1022.40 1022.34 1022.28 1022.22 1022.16 1022.10 1022.02 1021.93 1021.81 1021.64 1021.44 1021.19 1020.89 1020.56 1020.20 1019.83 1019.47 1019.12 1018.79 1018.49 1018.21 1017.94 1017.67 1017.38 1017.06 1016.70 1016.30 1015.87 1015.41 1014.94 1014.46 1014.00 1013.55 1013.12 1012.71 1012.33 1011.98 1011.65 1011.36
1023.19 1023.15 1023.10 1023.05 1022.99 1022.93 1022.88 1022.82 1022.77 1022.71 1022.64 1022.56 1022.44 1022.29 1022.08 1021.83 1021.53 1021.17 1020.79 1020.38 1019.97 1019.58 1019.20 1018.86 1018.55 1018.26 1017.98 1017.70 1017.41 1017.09 1016.74 1016.35 1015.93 1015.47 1014.99 1014.50 1014.00 1013.51 1013.03 1012.57 1012.13 1011.72 1011.35
1023.81 1023.78 1023.73 1023.67 1023.61 1023.54 1023.47 1023.40 1023.33 1023.25 1023.16 1023.06 1022.93 1022.76 1022.55 1022.29 1021.98 1021.62 1021.23 1020.80 1020.37 1019.95 1019.54 1019.16 1018.82 1018.50 1018.21 1017.93 1017.64 1017.34 1017.01 1016.65 1016.24 1015.80 1015.33 1014.83 1014.31 1013.79 1013.28 1012.77 1012.29 1011.83 1011.41
1024.51 1024.49 1024.45 1024.39 1024.32 1024.24 1024.14 1024.03 1023.91 1023.79 1023.65 1023.50 1023.32 1023.12 1022.88 1022.60 1022.28 1021.92 1021.53 1021.11 1020.67 1020.24 1019.82 1019.42 1019.05 1018.72 1018.40 1018.10 1017.80 1017.49 1017.15 1016.79 1016.40 1015.96 1015.50 1015.00 1014.49 1013.97 1013.44 1012.93 1012.43 1011.96 1011.52
Thickness
5772 5770 5768 5767 5767 5765 5764 5762 5761 5761 5760 5760 5759 5758 5757 5755 5753 5749 5745 5742 5741 5739 5737 5735 5733 5731 5729 5727 5725 5723 5721 5719 5717 5716 5714 5713 5711 5709 5708 5707 5705 5704 5703
5771 5769 5767 5766 5767 5766 5765 5763 5762 5761 5759 5759 5758 5757 5756 5754 5752 5750 5746 5742 5741 5739 5737 5735 5734 5731 5729 5727 5725 5723 5721 5719 5718 5716 5714 5713 5711 5709 5708 5706 5705 5704 5703
5770 5769 5768 5767 5767 5766 5765 5763 5762 5760 5759 5758 5756 5756 5755 5754 5752 5749 5746 5744 5741 5739 5737 5736 5734 5732 5730 5728 5726 5724 5722 5720 5718 5716 5715 5713 5711 5709 5708 5706 5705 5704 5703
5769 5768 5767 5767 5766 5765 5764 5762 5761 5758 5757 5755 5754 5754 5754 5753 5752 5750 5748 5745 5743 5741 5738 5736 5735 5733 5731 5729 5727 5725 5723 5721 5719 5717 5715 5713 5711 5710 5708 5707 5705 5704 5702
5769 5767 5766 5765 5765 5764 5763 5761 5758 5757 5754 5753 5753 5753 5753 5753 5752 5751 5749 5747 5745 5743 5740 5738 5736 5734 5732 5730 5728 5726 5724 5722 5720 5718 5716 5714 5712 5710 5709 5707 5706 5704 5703
5769 5767 5765 5764 5763 5762 5760 5759 5756 5756 5754 5753 5753 5753 5753 5753 5753 5752 5751 5749 5747 5745 5743 5741 5737 5735 5733 5731 5729 5727 5725 5723 5721 5719 5717 5715 5713 5712 5710 5708 5706 5705 5703
5768 5766 5765 5763 5762 5760 5758 5757 5755 5753 5752 5753 5749 5746 5749 5753 5752 5752 5751 5750 5749 5747 5745 5743 5740 5737 5735 5733 5731 5728 5726 5724 5722 5720 5718 5717 5715 5713 5711 5709 5707 5706 5704
5768 5767 5764 5762 5761 5758 5757 5755 5754 5751 5751 5752 5746 5740 5736 5739 5746 5751 5750 5749 5749 5748 5746 5744 5742 5740 5737 5735 5732 5730 5728 5726 5723 5721 5720 5718 5716 5714 5712 5710 5708 5707 5705
5769 5767 5765 5763 5761 5758 5755 5754 5753 5750 5747 5749 5749 5742 5733 5730 5737 5745 5748 5749 5749 5747 5747 5746 5744 5741 5739 5736 5734 5731 5729 5727 5724 5723 5721 5719 5717 5715 5713 5711 5709 5707 5706
5769 5768 5766 5764 5761 5759 5756 5755 5755 5753 5749 5745 5748 5748 5746 5742 5735 5734 5742 5746 5747 5746 5747 5747 5746 5743 5740 5738 5736 5733 5731 5728 5725 5723 5722 5720 5718 5715 5713 5712 5710 5708 5706
5770 5768 5766 5764 5761 5759 5757 5756 5755 5753 5751 5748 5746 5746 5745 5744 5743 5736 5732 5738 5743 5746 5748 5747 5746 5744 5741 5739 5736 5734 5731 5729 5726 5724 5722 5720 5718 5716 5714 5712 5711 5709 5707
5769 5769 5767 5764 5762 5759 5757 5756 5755 5753 5751 5750 5748 5747 5745 5742 5741 5740 5736 5736 5737 5743 5747 5748 5746 5745 5743 5740 5738 5735 5733 5730 5727 5725 5723 5720 5718 5716 5714 5713 5711 5709 5707
5768 5768 5768 5764 5761 5759 5757 5756 5754 5753 5751 5749 5748 5747 5747 5747 5747 5744 5739 5737 5737 5741 5745 5747 5747 5746 5743 5741 5738 5735 5733 5730 5728 5725 5723 5720 5718 5716 5714 5712 5710 5708 5706
5770 5770 5767 5764 5762 5759 5758 5755 5754 5752 5751 5749 5749 5748 5747 5747 5747 5746 5742 5737 5732 5734 5738 5741 5745 5745 5743 5741 5738 5735 5733 5730 5728 5725 5722 5720 5717 5715 5713 5711 5709 5707 5706
5771 5770 5767 5764 5762 5759 5758 5756 5753 5752 5751 5749 5748 5748 5747 5747 5747 5747 5746 5743 5734 5726 5728 5736 5739 5743 5742 5739 5736 5734 5732 5730 5727 5725 5722 5719 5716 5714 5711 5709 5707 5706 5704
5770 5768 5766 5763 5761 5759 5757 5755 5753 5752 5750 5749 5748 5747 5747 5747 5747 5746 5744 5743 5740 5733 5728 5734 5737 5740 5739 5738 5734 5732 5731 5729 5727 5724 5721 5718 5716 5713 5711 5708 5706 5704 5702
5767 5765 5764 5761 5759 5758 5756 5754 5752 5751 5749 5747 5747 5746 5745 5745 5744 5744 5743 5741 5739 5736 5728 5731 5735 5736 5735 5733 5731 5730 5728 5725 5723 5722 5720 5718 5715 5712 5710 5707 5705 5702 5700
5765 5764 5762 5760 5758 5756 5755 5753 5750 5749 5747 5745 5745 5744 5744 5744 5742 5741 5740 5739 5737 5736 5730 5725 5728 5730 5730 5729 5728 5726 5725 5723 5722 5721 5718 5715 5713 5710 5708 5705 5702 5700 5697
5763 5762 5761 5757 5755 5754 5752 5751 5749 5747 5746 5744 5744 5742 5742 5741 5738 5738 5737 5736 5734 5734 5731 5726 5724 5726 5725 5725 5723 5721 5721 5720 5719 5718 5715 5712 5709 5706 5704 5702 5699 5697 5694
5760 5759 5757 5755 5753 5751 5750 5748 5746 5745 5744 5743 5743 5741 5739 5738 5736 5735 5734 5732 5731 5729 5727 5723 5721 5720 5719 5720 5717 5713 5712 5713 5712 5713 5710 5707 5705 5702 5699 5697 5694 5692 5690
5758 5756 5753 5750 5749 5747 5746 5745 5743 5742 5740 5740 5739 5738 5736 5735 5734 5733 5731 5728 5726 5723 5721 5718 5715 5713 5712 5710 5708 5708 5705 5705 5705 5705 5703 5702 5699 5696 5693 5690 5688 5686 5683
5754 5751 5748 5745 5744 5743 5742 5740 5739 5738 5736 5735 5733 5732 5731 5730 5729 5727 5725 5723 5721 5717 5714 5711 5708 5706 5705 5704 5703 5702 5699 5696 5693 5697 5694 5693 5692 5689 5687 5684 5682 5680 5677
5748 5745 5743 5741 5739 5737 5736 5735 5733 5732 5731 5729 5728 5726 5725 5725 5724 5722 5719 5717 5714 5711 5709 5706 5701 5699 5698 5697 5696 5694 5692 5689 5687 5688 5686 5683 5683 5679 5679 5677 5675 5672 5669
5743 5740 5737 5736 5734 5731 5729 5728 5727 5726 5725 5724 5722 5721 5718 5716 5716 5714 5713 5709 5706 5703 5701 5698 5695 5692 5691 5690 5688 5686 5684 5683 5682 5680 5679 5673 5673 5670 5670 5667 5665 5663 5660
5738 5735 5732 5730 5727 5724 5723 5722 5721 5721 5719 5717 5716 5714 5712 5710 5708 5707 5704 5701 5697 5694 5692 5690 5688 5685 5683 5681 5679 5676 5674 5671 5668 5668 5667 5664 5662 5660 5658 5656 5654 5652 5649
5733 5730 5726 5724 5722 5719 5716 5716 5715 5715 5712 5711 5709 5706 5703 5701 5699 5697 5695 5691 5687 5685 5683 5681 5678 5676 5674 5671 5668 5665 5663 5659 5656 5654 5654 5652 5650 5648 5645 5645 5643 5640 5637